Location: Arbon
(43.0005°N, 0.7472°E)
Time: 09:04:29
(UTC+00:00)

BREEZE-M DEB (TANK) - Pass Details

Date: 22 April 2026
Orbit: 346 x 16119 km, 49.4° (Epoch: 14 May)

Event Time Altitude Azimuth Distance (km) Brightness Sun altitude
Rises 19:34:38 0° 296° (WNW) 2,147 7.9 -8.8°
Reaches altitude 10° 19:36:17 10° 309° (NW) 1,376 5.9 -9.1°
Maximum altitude 19:38:39 32° 18° (NNE) 853 3.4 -9.5°
Drops below altitude 10° 19:43:09 10° 84° (E) 2,648 5.3 -10.2°
Enters shadow 19:44:09 - 87° (E) 3,129 5.6 -10.3°
